Regional Weather Roundup
Issued by NWS

Home | Current Version | Previous Version | Text Only | Print | Product List | Glossary On
Versions: 1 2 3 4 5 6 7 8 9 10 11 12 13 14 15 16 17 18 19 20 21 22 23 24 25 26 27
000
ASUS46 KSEW 181610
RWRWA

WASHINGTON REGIONAL WEATHER ROUNDUP
NATIONAL WEATHER SERVICE SEATTLE WA
900 AM PDT FRI APR 18 2014

NOTE:"FAIR" INDICATES FEW OR NO CLOUDS BELOW 12,000 FEET WITH NO
SIGNIFICANT WEATHER AND/OR OBSTRUCTIONS TO VISIBILITY.

WAZ505-507>509-181700-
SEATTLE, TACOMA, EVERETT, AND VICINITY

CITY           SKY/WX    TMP DP  RH WIND       PRES   REMARKS
EVERETT        MOSUNNY   44  40  85 S9        30.08R
BOEING FIELD   PTSUNNY   49  39  68 S8        30.10R
RENTON         CLOUDY    47  39  74 SE8       30.10R
SEATAC AIRPORT PTSUNNY   47  39  74 S10       30.10R
JBLM-MCCHORD   SUNNY     48  40  75 SW10      30.10R
PUYALLUP         N/A     46  39  76 SW7       30.11R
JBLM-FT LEWIS  SUNNY     47  40  74 S10       30.10R
TACOMA NARROWS CLOUDY    46  39  76 S6        30.09R
$$

WAZ001-503-506-510-514-515-181700-
NORTH INTERIOR

CITY           SKY/WX    TMP DP  RH WIND       PRES   REMARKS
BELLINGHAM     MOSUNNY   47  37  68 S5        30.05R
FRIDAY HARBOR  SUNNY     49  39  68 SW12G20   30.06R
EASTSOUND      SUNNY     48  36  61 S9        30.04R
PORT ANGELES   MOSUNNY   48  34  58 W10       30.06R
NAS WHIDBEY    MOSUNNY   51  38  60 SW15G22   30.08R
BURLINGTON     MOSUNNY   48  39  71 SW8       30.08R
$$

WAZ020-022-039-040-504-511-512-181700-
SOUTHWEST INTERIOR

CITY           SKY/WX    TMP DP  RH WIND       PRES   REMARKS
SHELTON        SUNNY     47  39  74 SW14      30.06R
OLYMPIA        SUNNY     47  40  76 SW13      30.11R
CHEHALIS       CLOUDY    46  41  81 S6        30.15R
KELSO          CLOUDY    45  39  81 SE5       30.19R
VANCOUVER      SUNNY     47  42  83 E7        30.15S
SCAPPOOSE, OR  MOSUNNY   46  42  86 CALM      30.14S
PORTLAND, OR   MOSUNNY   47  42  83 SE5       30.15S
$$

WAZ021-516-517-181700-
WASHINGTON COAST

CITY           SKY/WX    TMP DP  RH WIND       PRES   REMARKS
FORKS          MOSUNNY   46  44  93 CALM      30.09R
HOQUIAM        MOSUNNY   49  41  74 N8        30.11R
ASTORIA, OR    MOSUNNY   49  43  80 E5        30.13R
$$

WAZ019-023-024-040-518-519-181700-
CASCADE MOUNTAINS AND COLUMBIA GORGE

CITY           SKY/WX    TMP DP  RH WIND       PRES   REMARKS
STAMPEDE PASS  NOT AVBL
TROUTDALE, OR  MOSUNNY   48  42  80 CALM      30.14S
THE DALLES, OR PTSUNNY   50  38  63 NW9       30.12R
$$

WAZ026-027-041>044-520-521-181700-
EAST SLOPES

CITY           SKY/WX    TMP DP  RH WIND       PRES   REMARKS
OMAK           SUNNY     51  23  33 S16G23    29.82R
WENATCHEE      SUNNY     50  26  39 NW18      29.91R
ELLENSBURG     SUNNY     44  28  53 NW15      29.97R
YAKIMA         SUNNY     52  24  33 NW17G25   29.99S
$$

WAZ028-034-035-181700-
COLUMBIA BASIN

CITY           SKY/WX    TMP DP  RH WIND       PRES   REMARKS
EPHRATA        SUNNY     50  30  46 W16G22    29.92R
MOSES LAKE     SUNNY     51  29  42 W9        29.94R
HANFORD        NOT AVBL
PASCO          SUNNY     50  37  61 SW20      30.03R
HERMISTON, OR  SUNNY     50  34  54 SW18G28   30.06R
$$

WAZ036>038-181700-
NORTHEAST WASHINGTON

CITY           SKY/WX    TMP DP  RH WIND       PRES   REMARKS
SPOKANE GEIGER MOSUNNY   41  32  70 SW23      29.88R
SPOKANE FELTS  MOSUNNY   44  33  65 SW18      29.91R
FAIRCHILD AFB  MOSUNNY   41  33  74 SW21G29   29.88R
COEURDALENE,ID CLOUDY    43  30  61 S15G24    29.90R
DEER PARK      MOSUNNY   43  30  60 SW14G28   29.86R
$$

WAZ029>033-181700-
SOUTHEAST WASHINGTON

CITY           SKY/WX    TMP DP  RH WIND       PRES   REMARKS
PULLMAN        PTSUNNY   42  32  67 SW23G32   29.97S
LEWISTON, ID   SUNNY     50  23  34 W13G22    29.98R
WALLA WALLA    MOSUNNY   48  33  56 SW18G28   30.06R
PENDLETON, OR  SUNNY     47  31  53 W22G28    30.04R
$$



USA.gov is the U.S. government's official web portal to all federal, state and local government web resources and services.